| time (UTC) | temp F | wind direction | speed MPH | gust MPH | rain 1hr in | rain 24hr in | rain mn in | humidity % | barometer mb |
| 20260906103033 | 56 | 23 | 7.0 | 0.0 | 0.00 | 0.00 | 0.00 | 59 | 1005.8 |
| 20260906102524 | 55 | 318 | 7.0 | 0.0 | 0.00 | 0.00 | 0.00 | 61 | 1005.6 |
| 20260906102026 | 55 | 342 | 6.0 | 0.0 | 0.00 | 0.00 | 0.00 | 58 | 1005.6 |
| 20260906101524 | 55 | 342 | 6.0 | 0.0 | 0.00 | 0.00 | 0.00 | 59 | 1005.6 |
| 20260906101024 | 55 | 341 | 6.0 | 0.0 | 0.00 | 0.00 | 0.00 | 59 | 1005.4 |
| 20260906100539 | 55 | 339 | 5.0 | 0.0 | 0.00 | 0.00 | 0.00 | 58 | 1005.4 |
| 20260906100021 | 55 | 321 | 7.0 | 0.0 | 0.00 | 0.00 | 0.00 | 60 | 1005.4 |
| 20260906095526 | 54 | 13 | 7.0 | 0.0 | 0.00 | 0.00 | 0.00 | 59 | 1005.4 |
| 20260906095044 | 55 | 338 | 8.0 | 0.0 | 0.00 | 0.00 | 0.00 | 59 | 1005.4 |
| 20260906094544 | 54 | 331 | 7.0 | 0.0 | 0.00 | 0.00 | 0.00 | 58 | 1005.4 |
| 20260906094040 | 54 | 304 | 6.0 | 0.0 | 0.00 | 0.00 | 0.00 | 59 | 1005.3 |
| 20260906093525 | 54 | 277 | 6.0 | 0.0 | 0.00 | 0.00 | 0.00 | 60 | 1005.3 |
| 20260906093032 | 54 | 329 | 6.0 | 0.0 | 0.00 | 0.00 | 0.00 | 58 | 1005.3 |
| 20260906092545 | 54 | 338 | 7.0 | 0.0 | 0.00 | 0.00 | 0.00 | 61 | 1005.0 |
| 20260906092023 | 54 | 346 | 7.0 | 0.0 | 0.00 | 0.00 | 0.00 | 60 | 1005.0 |
| 20260906091532 | 54 | 9 | 6.0 | 0.0 | 0.00 | 0.00 | 0.00 | 60 | 1005.0 |
| 20260906091038 | 53 | 352 | 5.0 | 0.0 | 0.00 | 0.00 | 0.00 | 63 | 1005.0 |
| 20260906090556 | 52 | 30 | 7.0 | 0.0 | 0.00 | 0.00 | 0.00 | 64 | 1005.0 |
| 20260906090040 | 52 | 342 | 5.0 | 0.0 | 0.00 | 0.00 | 0.00 | 64 | 1005.0 |
| 20260906085522 | 53 | 336 | 4.0 | 0.0 | 0.00 | 0.00 | 0.00 | 64 | 1004.8 |
| 20260906085037 | 53 | 331 | 6.0 | 0.0 | 0.00 | 0.00 | 0.00 | 64 | 1004.8 |
| 20260906084529 | 53 | 319 | 6.0 | 0.0 | 0.00 | 0.00 | 0.00 | 61 | 1004.8 |
| 20260906084033 | 53 | 342 | 6.0 | 0.0 | 0.00 | 0.00 | 0.00 | 63 | 1004.6 |
| 20260906083537 | 53 | 286 | 7.0 | 0.0 | 0.00 | 0.00 | 0.00 | 63 | 1004.6 |
| 20260906083032 | 52 | 23 | 6.0 | 0.0 | 0.00 | 0.00 | 0.00 | 66 | 1004.6 |
| 20260906082537 | 52 | 6 | 5.0 | 0.0 | 0.00 | 0.00 | 0.00 | 64 | 1004.6 |
| 20260906082026 | 52 | 355 | 6.0 | 0.0 | 0.00 | 0.00 | 0.00 | 64 | 1004.6 |
| 20260906081531 | 52 | 7 | 6.0 | 0.0 | 0.00 | 0.00 | 0.00 | 64 | 1004.6 |
| 20260906081028 | 52 | 343 | 7.0 | 0.0 | 0.00 | 0.00 | 0.00 | 64 | 1004.5 |
| 20260906080541 | 53 | 349 | 7.0 | 0.0 | 0.00 | 0.00 | 0.00 | 64 | 1004.5 |
| 20260906080029 | 53 | 356 | 7.0 | 0.0 | 0.00 | 0.00 | 0.00 | 63 | 1004.5 |
| 20260906075534 | 53 | 20 | 7.0 | 0.0 | 0.00 | 0.00 | 0.00 | 64 | 1004.1 |
| 20260906075048 | 53 | 311 | 7.0 | 0.0 | 0.00 | 0.00 | 0.00 | 65 | 1004.1 |
| 20260906074537 | 52 | 23 | 8.0 | 0.0 | 0.00 | 0.00 | 0.00 | 66 | 1004.1 |
| 20260906074041 | 52 | 345 | 7.0 | 0.0 | 0.00 | 0.00 | 0.00 | 65 | 1004.1 |
| 20260906073536 | 52 | 16 | 6.0 | 0.0 | 0.00 | 0.00 | 0.00 | 68 | 1004.1 |
| 20260906073052 | 51 | 22 | 6.0 | 0.0 | 0.00 | 0.00 | 0.00 | 67 | 1004.1 |
| 20260906072556 | 51 | 353 | 5.0 | 0.0 | 0.00 | 0.00 | 0.00 | 71 | 1004.0 |
| 20260906072048 | 50 | 301 | 5.0 | 0.0 | 0.00 | 0.00 | 0.00 | 71 | 1004.0 |
| 20260906071553 | 50 | 276 | 4.0 | 0.0 | 0.00 | 0.00 | 0.00 | 71 | 1004.0 |
| 20260906071029 | 51 | 307 | 4.0 | 0.0 | 0.00 | 0.00 | 0.00 | 72 | 1003.9 |
| 20260906070540 | 51 | 336 | 4.0 | 0.0 | 0.00 | 0.00 | 0.00 | 73 | 1003.9 |
| 20260906070048 | 51 | 353 | 5.0 | 0.0 | 0.00 | 0.00 | 0.00 | 73 | 1003.9 |
| 20260906065541 | 51 | 315 | 5.0 | 0.0 | 0.00 | 0.00 | 0.00 | 73 | 1003.6 |
| 20260906065028 | 50 | 322 | 4.0 | 0.0 | 0.00 | 0.00 | 0.00 | 74 | 1003.6 |
| 20260906064551 | 50 | 338 | 3.0 | 0.0 | 0.00 | 0.00 | 0.00 | 76 | 1003.6 |
| 20260906064046 | 50 | 336 | 3.0 | 0.0 | 0.00 | 0.00 | 0.00 | 76 | 1003.4 |
| 20260906063531 | 50 | 332 | 3.0 | 0.0 | 0.00 | 0.00 | 0.00 | 76 | 1003.4 |
| 20260906063039 | 50 | 353 | 4.0 | 0.0 | 0.00 | 0.00 | 0.00 | 76 | 1003.4 |
| 20260906062541 | 50 | 342 | 3.0 | 0.0 | 0.00 | 0.00 | 0.00 | 77 | 1003.2 |
| 20260906062031 | 49 | 311 | 2.0 | 0.0 | 0.00 | 0.00 | 0.00 | 80 | 1003.2 |
| 20260906061534 | 49 | 342 | 2.0 | 0.0 | 0.00 | 0.00 | 0.00 | 82 | 1003.2 |
| 20260906061026 | 48 | 13 | 1.0 | 0.0 | 0.00 | 0.00 | 0.00 | 84 | 1003.1 |
| 20260906060529 | 47 | 14 | 2.0 | 0.0 | 0.00 | 0.00 | 0.00 | 86 | 1003.1 |
| 20260906060036 | 47 | 305 | 1.0 | 0.0 | 0.00 | 0.00 | 0.00 | 88 | 1003.1 |
| 20260906055535 | 47 | 339 | 1.0 | 0.0 | 0.00 | 0.00 | 0.00 | 88 | 1002.9 |
| 20260906055035 | 46 | 329 | 0.0 | 0.0 | 0.00 | 0.00 | 0.00 | 90 | 1002.9 |
| 20260906054526 | 46 | 341 | 0.0 | 0.0 | 0.00 | 0.00 | 0.00 | 91 | 1002.9 |
| 20260906054031 | 46 | 348 | 0.0 | 0.0 | 0.00 | 0.00 | 0.00 | 91 | 1002.8 |
| 20260906053534 | 46 | 308 | 0.0 | 0.0 | 0.00 | 0.00 | 0.00 | 92 | 1002.8 |
| 20260906053044 | 46 | 324 | 0.0 | 0.0 | 0.00 | 0.00 | 0.00 | 92 | 1002.8 |
| 20260906052527 | 45 | 342 | 0.0 | 0.0 | 0.00 | 0.00 | 0.00 | 93 | 1002.6 |
| 20260906052107 | 45 | 331 | 0.0 | 0.0 | 0.00 | 0.00 | 0.00 | 93 | 1002.6 |
| 20260906051525 | 45 | 328 | 0.0 | 0.0 | 0.00 | 0.00 | 0.00 | 94 | 1002.6 |
| 20260906051030 | 45 | 331 | 0.0 | 0.0 | 0.00 | 0.00 | 0.00 | 94 | 1002.5 |
| 20260906050545 | 45 | 345 | 0.0 | 0.0 | 0.00 | 0.00 | 0.00 | 94 | 1002.5 |
| 20260906050034 | 44 | 335 | 0.0 | 0.0 | 0.00 | 0.00 | 0.00 | 94 | 1002.4 |
| 20260906045533 | 44 | 332 | 0.0 | 0.0 | 0.00 | 0.00 | 0.00 | 95 | 1002.4 |
| 20260906045053 | 44 | 336 | 0.0 | 0.0 | 0.00 | 0.00 | 0.00 | 95 | 1002.4 |
| 20260906044537 | 44 | 311 | 0.0 | 0.0 | 0.00 | 0.00 | 0.00 | 95 | 1002.4 |
| 20260906044024 | 44 | 336 | 0.0 | 0.0 | 0.00 | 0.00 | 0.00 | 96 | 1002.1 |
| 20260906043534 | 44 | 328 | 0.0 | 0.0 | 0.00 | 0.00 | 0.00 | 96 | 1002.1 |
| 20260906043038 | 44 | 328 | 0.0 | 0.0 | 0.00 | 0.00 | 0.00 | 96 | 1002.1 |
| 20260906042520 | 44 | 295 | 0.0 | 0.0 | 0.00 | 0.00 | 0.00 | 96 | 1001.9 |
| 20260906042036 | 44 | 263 | 0.0 | 0.0 | 0.00 | 0.00 | 0.00 | 97 | 1001.9 |
| 20260906041536 | 44 | 310 | 0.0 | 0.0 | 0.00 | 0.00 | 0.00 | 97 | 1001.9 |
| 20260906041020 | 44 | 262 | 0.0 | 0.0 | 0.00 | 0.00 | 0.00 | 98 | 1001.8 |
| 20260906040604 | 44 | 293 | 0.0 | 0.0 | 0.00 | 0.00 | 0.00 | 98 | 1001.8 |
| 20260906040053 | 44 | 278 | 0.0 | 0.0 | 0.00 | 0.00 | 0.00 | 99 | 1001.8 |
| 20260906035547 | 44 | 297 | 0.0 | 0.0 | 0.00 | 0.00 | 0.00 | 99 | 1001.6 |
| 20260906035031 | 44 | 304 | 0.0 | 0.0 | 0.00 | 0.00 | 0.00 | 99 | 1001.6 |
| 20260906034546 | 44 | 314 | 0.0 | 0.0 | 0.00 | 0.00 | 0.00 | 99 | 1001.6 |
| 20260906034028 | 44 | 342 | 0.0 | 0.0 | 0.00 | 0.00 | 0.00 | 99 | 1001.4 |
| 20260906033533 | 44 | 325 | 0.0 | 0.0 | 0.00 | 0.00 | 0.00 | 99 | 1001.4 |
| 20260906033030 | 44 | 315 | 0.0 | 0.0 | 0.00 | 0.00 | 0.00 | 99 | 1001.4 |
| 20260906032525 | 44 | 312 | 0.0 | 0.0 | 0.00 | 0.00 | 0.00 | 99 | 1001.4 |
| 20260906032031 | 44 | 301 | 0.0 | 0.0 | 0.00 | 0.00 | 0.00 | 99 | 1001.4 |
| 20260906031525 | 44 | 291 | 0.0 | 0.0 | 0.00 | 0.00 | 0.00 | 99 | 1001.4 |
| 20260906031027 | 43 | 314 | 0.0 | 0.0 | 0.00 | 0.00 | 0.00 | 99 | 1001.3 |
| 20260906030534 | 43 | 321 | 0.0 | 0.0 | 0.00 | 0.00 | 0.00 | 99 | 1001.3 |
| 20260906030050 | 43 | 274 | 0.0 | 0.0 | 0.00 | 0.00 | 0.00 | 99 | 1001.4 |
| 20260906025530 | 44 | 273 | 0.0 | 0.0 | 0.00 | 0.00 | 0.00 | 99 | 1001.2 |
| 20260906025046 | 44 | 273 | 0.0 | 0.0 | 0.00 | 0.00 | 0.00 | 99 | 1001.2 |
| 20260906024532 | 44 | 273 | 0.0 | 0.0 | 0.00 | 0.00 | 0.00 | 99 | 1001.2 |
| 20260906024043 | 44 | 300 | 0.0 | 0.0 | 0.00 | 0.00 | 0.00 | 99 | 1001.0 |
| 20260906023525 | 44 | 335 | 0.0 | 0.0 | 0.00 | 0.00 | 0.00 | 99 | 1001.0 |
| 20260906023035 | 44 | 336 | 0.0 | 0.0 | 0.00 | 0.00 | 0.00 | 99 | 1001.0 |
| 20260906022540 | 45 | 307 | 0.0 | 0.0 | 0.00 | 0.00 | 0.00 | 99 | 1001.0 |
| 20260906022027 | 45 | 324 | 0.0 | 0.0 | 0.00 | 0.00 | 0.00 | 99 | 1001.0 |
| 20260906021538 | 45 | 308 | 0.0 | 0.0 | 0.00 | 0.00 | 0.00 | 99 | 1001.0 |
| 20260906021021 | 45 | 317 | 0.0 | 0.0 | 0.00 | 0.00 | 0.00 | 100 | 1000.9 |
| 20260906020527 | 45 | 326 | 0.0 | 0.0 | 0.00 | 0.00 | 0.00 | 100 | 1000.9 |
| 20260906020105 | 46 | 321 | 0.0 | 0.0 | 0.00 | 0.00 | 0.00 | 100 | 1000.9 |
| 20260906015528 | 46 | 334 | 0.0 | 0.0 | 0.00 | 0.00 | 0.00 | 100 | 1000.8 |
| 20260906015105 | 46 | 342 | 0.0 | 0.0 | 0.00 | 0.00 | 0.00 | 100 | 1000.8 |
| 20260906014540 | 46 | 329 | 0.0 | 0.0 | 0.00 | 0.00 | 0.00 | 100 | 1000.8 |
| 20260906014045 | 46 | 342 | 0.0 | 0.0 | 0.00 | 0.00 | 0.00 | 100 | 1000.6 |
| 20260906013527 | 46 | 334 | 0.0 | 0.0 | 0.00 | 0.00 | 0.00 | 100 | 1000.6 |
| 20260906013028 | 45 | 293 | 0.0 | 0.0 | 0.00 | 0.00 | 0.00 | 100 | 1000.6 |
| 20260906012558 | 45 | 341 | 0.0 | 0.0 | 0.00 | 0.00 | 0.00 | 99 | 1000.4 |
| 20260906012043 | 45 | 308 | 0.0 | 0.0 | 0.00 | 0.00 | 0.00 | 99 | 1000.4 |
| 20260906011534 | 45 | 305 | 0.0 | 0.0 | 0.00 | 0.00 | 0.00 | 99 | 1000.4 |
| 20260906011039 | 45 | 290 | 0.0 | 0.0 | 0.00 | 0.00 | 0.00 | 99 | 1000.3 |
| 20260906010525 | 45 | 294 | 0.0 | 0.0 | 0.00 | 0.00 | 0.00 | 99 | 1000.3 |
| 20260906010044 | 45 | 338 | 0.0 | 0.0 | 0.00 | 0.00 | 0.00 | 99 | 1000.3 |
| 20260906005549 | 45 | 342 | 0.0 | 0.0 | 0.00 | 0.00 | 0.00 | 99 | 1000.3 |
| 20260906005031 | 44 | 321 | 0.0 | 0.0 | 0.00 | 0.00 | 0.00 | 98 | 1000.3 |
| 20260906004526 | 44 | 310 | 0.0 | 0.0 | 0.00 | 0.00 | 0.00 | 97 | 1000.3 |
| 20260906004034 | 44 | 310 | 0.0 | 0.0 | 0.00 | 0.00 | 0.00 | 97 | 1000.1 |
| 20260906003530 | 44 | 300 | 0.0 | 0.0 | 0.00 | 0.00 | 0.00 | 97 | 1000.1 |
| 20260906003037 | 43 | 239 | 0.0 | 0.0 | 0.00 | 0.00 | 0.00 | 96 | 1000.1 |
| 20260906002537 | 43 | 259 | 0.0 | 0.0 | 0.00 | 0.00 | 0.00 | 96 | 1000.0 |
| 20260906002046 | 43 | 269 | 0.0 | 0.0 | 0.00 | 0.00 | 0.00 | 95 | 1000.0 |
| 20260906001531 | 44 | 260 | 0.0 | 0.0 | 0.00 | 0.00 | 0.00 | 95 | 1000.0 |
| 20260906001030 | 44 | 256 | 0.0 | 0.0 | 0.00 | 0.00 | 0.00 | 95 | 1000.0 |
| 20260906000540 | 44 | 298 | 0.0 | 0.0 | 0.00 | 0.00 | 0.00 | 95 | 1000.0 |
| 20260906000022 | 44 | 298 | 0.0 | 0.0 | 0.00 | 0.00 | 0.00 | 95 | 1000.0 |
| 20260905235524 | 45 | 298 | 0.0 | 0.0 | 0.00 | 0.00 | 0.00 | 95 | 1000.0 |
| 20260905235027 | 45 | 298 | 0.0 | 0.0 | 0.00 | 0.00 | 0.00 | 95 | 1000.0 |
| 20260905234536 | 45 | 298 | 0.0 | 0.0 | 0.00 | 0.00 | 0.00 | 95 | 1000.0 |
| 20260905234037 | 46 | 298 | 0.0 | 0.0 | 0.00 | 0.00 | 0.00 | 95 | 999.9 |
| 20260905233520 | 46 | 298 | 0.0 | 0.0 | 0.00 | 0.00 | 0.00 | 96 | 999.9 |
| 20260905233026 | 46 | 298 | 0.0 | 0.0 | 0.00 | 0.00 | 0.00 | 96 | 999.9 |
| 20260905232527 | 46 | 298 | 0.0 | 0.0 | 0.00 | 0.00 | 0.00 | 96 | 999.8 |
| 20260905232040 | 47 | 298 | 0.0 | 0.0 | 0.00 | 0.00 | 0.00 | 96 | 999.8 |
| 20260905231535 | 47 | 298 | 0.0 | 0.0 | 0.00 | 0.00 | 0.00 | 96 | 999.8 |
| 20260905231020 | 47 | 298 | 0.0 | 0.0 | 0.00 | 0.00 | 0.00 | 96 | 999.8 |
| 20260905230558 | 47 | 298 | 0.0 | 0.0 | 0.00 | 0.00 | 0.00 | 96 | 999.8 |
| 20260905230037 | 47 | 298 | 0.0 | 0.0 | 0.00 | 0.00 | 0.00 | 96 | 999.8 |
| 20260905225545 | 47 | 284 | 0.0 | 0.0 | 0.00 | 0.00 | 0.00 | 96 | 999.8 |
| 20260905225048 | 47 | 284 | 0.0 | 0.0 | 0.00 | 0.00 | 0.00 | 96 | 999.8 |
| 20260905224537 | 47 | 326 | 0.0 | 0.0 | 0.00 | 0.00 | 0.00 | 96 | 999.8 |
| 20260905224035 | 47 | 311 | 0.0 | 0.0 | 0.00 | 0.00 | 0.00 | 96 | 999.6 |
| 20260905223537 | 47 | 311 | 0.0 | 0.0 | 0.00 | 0.00 | 0.00 | 96 | 999.6 |
| 20260905223038 | 47 | 311 | 0.0 | 0.0 | 0.00 | 0.00 | 0.00 | 95 | 999.6 |
| 20260905222550 | 47 | 311 | 0.0 | 0.0 | 0.00 | 0.00 | 0.00 | 95 | 999.5 |
| 20260905222034 | 47 | 311 | 0.0 | 0.0 | 0.00 | 0.00 | 0.00 | 95 | 999.5 |
| 20260905221551 | 48 | 311 | 0.0 | 0.0 | 0.00 | 0.00 | 0.00 | 95 | 999.5 |
| 20260905221032 | 48 | 300 | 0.0 | 0.0 | 0.00 | 0.00 | 0.00 | 95 | 999.4 |
| 20260905220537 | 48 | 314 | 0.0 | 0.0 | 0.00 | 0.00 | 0.00 | 95 | 999.4 |
| 20260905220033 | 48 | 339 | 0.0 | 0.0 | 0.00 | 0.00 | 0.00 | 95 | 999.4 |
| 20260905215537 | 48 | 348 | 0.0 | 0.0 | 0.00 | 0.00 | 0.00 | 95 | 999.3 |
| 20260905215025 | 48 | 328 | 0.0 | 0.0 | 0.00 | 0.00 | 0.00 | 95 | 999.3 |
| 20260905214537 | 48 | 342 | 0.0 | 0.0 | 0.00 | 0.00 | 0.00 | 95 | 999.3 |
| 20260905214022 | 48 | 342 | 1.0 | 0.0 | 0.00 | 0.00 | 0.00 | 95 | 999.2 |
| 20260905213529 | 48 | 10 | 2.0 | 0.0 | 0.00 | 0.00 | 0.00 | 95 | 999.2 |
| 20260905213045 | 48 | 339 | 2.0 | 0.0 | 0.00 | 0.00 | 0.00 | 95 | 999.2 |
| 20260905212524 | 48 | 332 | 1.0 | 0.0 | 0.00 | 0.00 | 0.00 | 95 | 999.2 |
| 20260905212021 | 48 | 30 | 0.0 | 0.0 | 0.00 | 0.00 | 0.00 | 94 | 999.2 |
| 20260905211533 | 48 | 355 | 1.0 | 0.0 | 0.00 | 0.00 | 0.00 | 94 | 999.2 |
| 20260905211033 | 48 | 336 | 1.0 | 0.0 | 0.00 | 0.00 | 0.00 | 94 | 998.9 |
| 20260905210537 | 48 | 342 | 1.0 | 0.0 | 0.00 | 0.00 | 0.00 | 94 | 998.9 |
| 20260905210053 | 48 | 348 | 1.0 | 0.0 | 0.00 | 0.00 | 0.00 | 94 | 998.9 |
| 20260905205533 | 48 | 332 | 2.0 | 0.0 | 0.00 | 0.00 | 0.02 | 94 | 998.8 |
| 20260905205038 | 48 | 14 | 3.0 | 0.0 | 0.00 | 0.00 | 0.02 | 94 | 998.8 |
| 20260905204521 | 48 | 5 | 2.0 | 0.0 | 0.00 | 0.00 | 0.02 | 94 | 998.8 |
| 20260905204059 | 48 | 26 | 2.0 | 0.0 | 0.00 | 0.00 | 0.02 | 94 | 998.7 |
| 20260905203522 | 48 | 40 | 2.0 | 0.0 | 0.00 | 0.00 | 0.02 | 94 | 998.7 |
| 20260905203032 | 48 | 346 | 1.0 | 0.0 | 0.00 | 0.00 | 0.02 | 94 | 998.7 |
| 20260905202535 | 48 | 335 | 0.0 | 0.0 | 0.00 | 0.00 | 0.02 | 94 | 998.6 |
| 20260905202021 | 48 | 342 | 0.0 | 0.0 | 0.00 | 0.00 | 0.02 | 94 | 998.6 |
| 20260905201538 | 47 | 328 | 0.0 | 0.0 | 0.00 | 0.00 | 0.02 | 94 | 998.6 |
| 20260905201023 | 47 | 335 | 0.0 | 0.0 | 0.00 | 0.00 | 0.02 | 94 | 998.4 |
| 20260905200525 | 47 | 311 | 0.0 | 0.0 | 0.00 | 0.00 | 0.02 | 94 | 998.4 |
| 20260905200046 | 47 | 336 | 0.0 | 0.0 | 0.00 | 0.00 | 0.02 | 93 | 998.4 |
| 20260905195529 | 47 | 336 | 0.0 | 0.0 | 0.00 | 0.00 | 0.02 | 93 | 998.3 |
| 20260905195037 | 47 | 325 | 0.0 | 0.0 | 0.00 | 0.00 | 0.02 | 93 | 998.3 |
| 20260905194557 | 47 | 314 | 0.0 | 0.0 | 0.00 | 0.00 | 0.02 | 92 | 998.3 |
| 20260905194039 | 48 | 353 | 0.0 | 0.0 | 0.00 | 0.00 | 0.02 | 92 | 998.2 |
| 20260905193524 | 48 | 334 | 1.0 | 0.0 | 0.00 | 0.00 | 0.02 | 92 | 998.2 |
| 20260905193104 | 48 | 305 | 1.0 | 0.0 | 0.00 | 0.00 | 0.02 | 92 | 998.2 |
| 20260905192523 | 48 | 338 | 0.0 | 0.0 | 0.00 | 0.00 | 0.02 | 92 | 998.1 |
| 20260905192030 | 48 | 318 | 1.0 | 0.0 | 0.00 | 0.00 | 0.02 | 92 | 998.1 |
| 20260905191536 | 48 | 342 | 1.0 | 0.0 | 0.00 | 0.00 | 0.02 | 92 | 998.1 |
| 20260905191031 | 48 | 267 | 1.0 | 0.0 | 0.00 | 0.00 | 0.02 | 91 | 998.1 |
| 20260905190536 | 48 | 336 | 1.0 | 0.0 | 0.00 | 0.00 | 0.02 | 91 | 998.1 |
| 20260905190053 | 49 | 334 | 1.0 | 0.0 | 0.00 | 0.00 | 0.02 | 91 | 998.1 |
| 20260905185558 | 49 | 341 | 1.0 | 0.0 | 0.00 | 0.00 | 0.02 | 91 | 997.8 |
| 20260905185024 | 49 | 301 | 0.0 | 0.0 | 0.00 | 0.00 | 0.02 | 91 | 997.8 |
| 20260905184523 | 49 | 342 | 0.0 | 0.0 | 0.00 | 0.00 | 0.02 | 91 | 997.8 |
| 20260905184036 | 49 | 349 | 0.0 | 0.0 | 0.00 | 0.00 | 0.02 | 91 | 997.8 |
| 20260905183519 | 49 | 342 | 1.0 | 0.0 | 0.00 | 0.00 | 0.02 | 91 | 997.8 |
| 20260905183027 | 49 | 356 | 2.0 | 0.0 | 0.00 | 0.00 | 0.02 | 91 | 997.8 |
| 20260905182543 | 49 | 342 | 2.0 | 0.0 | 0.00 | 0.00 | 0.02 | 90 | 997.7 |
| 20260905182031 | 49 | 335 | 2.0 | 0.0 | 0.00 | 0.00 | 0.02 | 90 | 997.7 |
| 20260905181528 | 49 | 338 | 1.0 | 0.0 | 0.00 | 0.00 | 0.02 | 90 | 997.7 |
| 20260905181034 | 49 | 9 | 1.0 | 0.0 | 0.00 | 0.00 | 0.02 | 89 | 997.7 |
| 20260905180520 | 49 | 360 | 2.0 | 0.0 | 0.00 | 0.00 | 0.02 | 89 | 997.7 |
| 20260905180032 | 49 | 349 | 2.0 | 0.0 | 0.00 | 0.00 | 0.02 | 89 | 997.6 |
| 20260905175559 | 49 | 350 | 2.0 | 0.0 | 0.00 | 0.00 | 0.02 | 89 | 997.5 |
| 20260905175022 | 49 | 310 | 2.0 | 0.0 | 0.00 | 0.00 | 0.02 | 89 | 997.5 |
| 20260905174539 | 49 | 324 | 1.0 | 0.0 | 0.00 | 0.00 | 0.02 | 89 | 997.5 |
| 20260905174040 | 49 | 359 | 2.0 | 0.0 | 0.00 | 0.00 | 0.02 | 89 | 997.2 |
| 20260905173523 | 49 | 308 | 2.0 | 0.0 | 0.00 | 0.00 | 0.02 | 88 | 997.2 |
| 20260905173037 | 49 | 341 | 2.0 | 0.0 | 0.00 | 0.00 | 0.02 | 88 | 997.2 |
| 20260905172520 | 49 | 342 | 2.0 | 0.0 | 0.00 | 0.00 | 0.02 | 88 | 997.1 |
| 20260905172026 | 50 | 355 | 2.0 | 0.0 | 0.00 | 0.00 | 0.02 | 88 | 997.2 |
| 20260905171545 | 50 | 355 | 3.0 | 0.0 | 0.00 | 0.00 | 0.02 | 88 | 997.2 |
| 20260905171027 | 50 | 332 | 2.0 | 0.0 | 0.00 | 0.00 | 0.02 | 88 | 996.9 |
| 20260905170535 | 50 | 349 | 2.0 | 0.0 | 0.00 | 0.00 | 0.02 | 88 | 996.9 |
| 20260905170026 | 50 | 339 | 1.0 | 0.0 | 0.00 | 0.00 | 0.02 | 87 | 996.9 |
| 20260905165533 | 50 | 342 | 2.0 | 0.0 | 0.00 | 0.00 | 0.02 | 87 | 996.7 |
| 20260905165048 | 50 | 342 | 1.0 | 0.0 | 0.00 | 0.00 | 0.02 | 87 | 996.7 |
| 20260905164534 | 50 | 44 | 3.0 | 0.0 | 0.00 | 0.00 | 0.02 | 86 | 996.7 |
| 20260905164036 | 50 | 342 | 6.0 | 0.0 | 0.00 | 0.00 | 0.02 | 86 | 996.6 |
| 20260905163522 | 51 | 358 | 5.0 | 0.0 | 0.00 | 0.00 | 0.02 | 86 | 996.6 |
| 20260905163039 | 51 | 19 | 3.0 | 0.0 | 0.00 | 0.00 | 0.02 | 87 | 996.6 |
| 20260905162521 | 51 | 355 | 4.0 | 0.0 | 0.00 | 0.00 | 0.02 | 87 | 996.5 |
| 20260905162056 | 51 | 7 | 6.0 | 0.0 | 0.00 | 0.00 | 0.02 | 87 | 996.5 |
| 20260905161537 | 51 | 342 | 5.0 | 0.0 | 0.00 | 0.00 | 0.02 | 87 | 996.5 |
| 20260905161023 | 51 | 353 | 3.0 | 0.0 | 0.00 | 0.00 | 0.02 | 88 | 996.3 |
| 20260905160527 | 51 | 6 | 3.0 | 0.0 | 0.00 | 0.00 | 0.02 | 88 | 996.3 |
| 20260905160026 | 51 | 353 | 3.0 | 0.0 | 0.00 | 0.00 | 0.02 | 88 | 996.2 |
| 20260905155530 | 52 | 329 | 4.0 | 0.0 | 0.00 | 0.00 | 0.02 | 87 | 996.1 |
| 20260905155037 | 52 | 342 | 4.0 | 0.0 | 0.00 | 0.00 | 0.02 | 86 | 996.1 |
| 20260905154552 | 52 | 342 | 5.0 | 0.0 | 0.00 | 0.00 | 0.02 | 85 | 996.1 |
| 20260905154033 | 53 | 342 | 6.0 | 0.0 | 0.00 | 0.00 | 0.02 | 84 | 995.9 |
| 20260905153523 | 53 | 342 | 5.0 | 0.0 | 0.00 | 0.00 | 0.02 | 83 | 995.9 |
| 20260905153027 | 53 | 334 | 6.0 | 0.0 | 0.00 | 0.00 | 0.02 | 80 | 995.9 |
| 20260905152539 | 53 | 13 | 6.0 | 0.0 | 0.00 | 0.00 | 0.02 | 79 | 995.7 |
| 20260905152025 | 53 | 23 | 5.0 | 0.0 | 0.00 | 0.00 | 0.02 | 80 | 995.7 |
| 20260905151558 | 53 | 302 | 4.0 | 0.0 | 0.00 | 0.00 | 0.02 | 80 | 995.7 |
| 20260905151020 | 53 | 342 | 5.0 | 0.0 | 0.00 | 0.00 | 0.02 | 80 | 995.6 |
| 20260905150520 | 53 | 33 | 6.0 | 0.0 | 0.00 | 0.00 | 0.02 | 81 | 995.6 |
| 20260905150028 | 53 | 341 | 5.0 | 0.0 | 0.00 | 0.00 | 0.02 | 81 | 995.6 |
| 20260905145524 | 54 | 345 | 5.0 | 0.0 | 0.00 | 0.00 | 0.02 | 81 | 995.4 |
| 20260905145030 | 54 | 34 | 6.0 | 0.0 | 0.00 | 0.00 | 0.02 | 81 | 995.4 |
| 20260905144548 | 54 | 342 | 6.0 | 0.0 | 0.00 | 0.00 | 0.02 | 82 | 995.4 |
| 20260905144031 | 54 | 360 | 6.0 | 0.0 | 0.00 | 0.00 | 0.02 | 82 | 995.2 |
| 20260905143553 | 54 | 339 | 5.0 | 0.0 | 0.00 | 0.00 | 0.02 | 82 | 995.2 |
| 20260905143036 | 54 | 334 | 5.0 | 0.0 | 0.00 | 0.00 | 0.02 | 82 | 995.2 |
| 20260905142538 | 54 | 339 | 5.0 | 0.0 | 0.00 | 0.00 | 0.02 | 82 | 995.1 |
| 20260905142019 | 54 | 98 | 5.0 | 0.0 | 0.00 | 0.00 | 0.02 | 82 | 995.1 |
| 20260905141529 | 54 | 342 | 5.0 | 0.0 | 0.00 | 0.00 | 0.02 | 82 | 995.1 |
| 20260905141055 | 54 | 19 | 6.0 | 0.0 | 0.00 | 0.00 | 0.02 | 82 | 995.0 |
| 20260905140527 | 54 | 13 | 6.0 | 0.0 | 0.00 | 0.00 | 0.02 | 82 | 995.0 |
| 20260905140058 | 54 | 16 | 5.0 | 0.0 | 0.00 | 0.00 | 0.02 | 81 | 995.0 |
| 20260905135548 | 54 | 294 | 6.0 | 0.0 | 0.00 | 0.00 | 0.02 | 80 | 994.7 |
| 20260905135027 | 54 | 339 | 6.0 | 0.0 | 0.00 | 0.00 | 0.02 | 80 | 994.7 |
| 20260905134543 | 55 | 343 | 6.0 | 0.0 | 0.00 | 0.00 | 0.02 | 79 | 994.7 |
| 20260905134021 | 55 | 9 | 6.0 | 0.0 | 0.00 | 0.00 | 0.02 | 77 | 994.5 |
| 20260905133525 | 55 | 22 | 6.0 | 0.0 | 0.00 | 0.00 | 0.02 | 80 | 994.5 |
| 20260905133043 | 55 | 13 | 6.0 | 0.0 | 0.00 | 0.00 | 0.02 | 79 | 994.5 |
| 20260905132528 | 55 | 24 | 6.0 | 0.0 | 0.00 | 0.00 | 0.02 | 79 | 994.5 |
| 20260905132028 | 55 | 356 | 6.0 | 0.0 | 0.00 | 0.00 | 0.02 | 80 | 994.5 |
| 20260905131547 | 55 | 342 | 5.0 | 0.0 | 0.00 | 0.00 | 0.02 | 81 | 994.5 |
| 20260905131031 | 55 | 307 | 5.0 | 0.0 | 0.00 | 0.00 | 0.02 | 82 | 994.3 |
| 20260905130535 | 55 | 328 | 4.0 | 0.0 | 0.00 | 0.00 | 0.02 | 82 | 994.3 |
| 20260905130048 | 55 | 41 | 4.0 | 0.0 | 0.00 | 0.00 | 0.02 | 83 | 994.3 |
| 20260905125529 | 55 | 342 | 6.0 | 0.0 | 0.00 | 0.00 | 0.02 | 82 | 994.0 |
| 20260905125036 | 56 | 22 | 6.0 | 0.0 | 0.00 | 0.00 | 0.02 | 80 | 994.1 |
| 20260905124550 | 57 | 16 | 4.0 | 0.0 | 0.00 | 0.00 | 0.02 | 79 | 994.1 |
| 20260905124054 | 57 | 22 | 3.0 | 0.0 | 0.00 | 0.00 | 0.02 | 78 | 993.9 |
| 20260905123532 | 56 | 356 | 4.0 | 0.0 | 0.00 | 0.00 | 0.02 | 81 | 993.9 |
| 20260905123038 | 56 | 342 | 5.0 | 0.0 | 0.00 | 0.00 | 0.02 | 80 | 993.9 |
| 20260905122520 | 57 | 342 | 6.0 | 0.0 | 0.00 | 0.00 | 0.02 | 79 | 993.6 |
| 20260905122036 | 57 | 335 | 6.0 | 0.0 | 0.00 | 0.00 | 0.02 | 79 | 993.6 |
| 20260905121521 | 58 | 47 | 6.0 | 0.0 | 0.00 | 0.00 | 0.02 | 79 | 993.6 |
| 20260905121027 | 58 | 13 | 4.0 | 0.0 | 0.00 | 0.00 | 0.02 | 80 | 993.5 |
| 20260905120527 | 57 | 37 | 3.0 | 0.0 | 0.00 | 0.00 | 0.02 | 81 | 993.5 |
| 20260905120023 | 57 | 356 | 4.0 | 0.0 | 0.00 | 0.00 | 0.02 | 80 | 993.5 |
| 20260905115523 | 58 | 339 | 3.0 | 0.0 | 0.00 | 0.00 | 0.02 | 80 | 993.4 |
| 20260905115043 | 58 | 322 | 4.0 | 0.0 | 0.00 | 0.00 | 0.02 | 80 | 993.4 |
| 20260905114525 | 57 | 20 | 3.0 | 0.0 | 0.00 | 0.00 | 0.02 | 82 | 993.4 |
| 20260905114027 | 57 | 334 | 3.0 | 0.0 | 0.00 | 0.00 | 0.02 | 81 | 993.3 |
| 20260905113531 | 57 | 342 | 4.0 | 0.0 | 0.00 | 0.00 | 0.02 | 80 | 993.3 |
| 20260905113049 | 57 | 359 | 5.0 | 0.0 | 0.00 | 0.00 | 0.02 | 80 | 993.3 |
| 20260905112529 | 58 | 3 | 4.0 | 0.0 | 0.00 | 0.00 | 0.02 | 81 | 993.0 |
| 20260905112056 | 58 | 336 | 3.0 | 0.0 | 0.00 | 0.00 | 0.02 | 82 | 993.0 |
| 20260905111529 | 58 | 16 | 3.0 | 0.0 | 0.00 | 0.00 | 0.02 | 85 | 993.0 |
| 20260905111055 | 58 | 23 | 4.0 | 0.0 | 0.00 | 0.00 | 0.02 | 82 | 992.9 |
| 20260905110543 | 58 | 19 | 4.0 | 0.0 | 0.00 | 0.00 | 0.02 | 82 | 992.9 |
| 20260905110024 | 59 | 27 | 4.0 | 0.0 | 0.00 | 0.00 | 0.02 | 81 | 992.9 |
| 20260905105525 | 58 | 36 | 4.0 | 0.0 | 0.00 | 0.00 | 0.01 | 80 | 992.8 |
| 20260905105044 | 58 | 14 | 4.0 | 0.0 | 0.00 | 0.00 | 0.01 | 81 | 992.8 |
| 20260905104559 | 57 | 26 | 3.0 | 0.0 | 0.00 | 0.00 | 0.01 | 82 | 992.8 |
| 20260905104022 | 57 | 26 | 2.0 | 0.0 | 0.00 | 0.00 | 0.01 | 83 | 992.7 |
| 20260905103527 | 57 | 29 | 6.0 | 0.0 | 0.00 | 0.00 | 0.01 | 83 | 992.7 |